User: anonymous   Login
Location: Bishop�s Knoyle
(51.0728°N, 2.1714°W)
Time: 00:42:10
(UTC+00:00)
Language:

NOSS 3-4 (C) - Orbit

View from above orbital plane
View from above orbital plane
View from above satellite
View from above satellite

Ground track
Ground track

The orbit data is extracted from the following two-line orbital elements,

1 31708U 07027C   21126.86662475 0.00000000  00000-0  00000-0 0    04
2 31708  63.3937  61.6129 0311872  19.5729 340.4271 13.40819038    00
Epoch (UTC): 06 May 2021 20:47:56
Eccentricity: 0.0311872
inclination: 63.3937°
perigee height: 873 km
apogee height: 1339 km
right ascension of ascending node: 61.6129°
argument of perigee: 19.5729°
revolutions per day: 13.40819038
mean anomaly at epoch: 340.4271°
orbit number at epoch: 0

The dashed part of the orbit path shows where the satellite is in the earth's shadow,  

DLR